Total_Precipitation_Accumulation
0.09 0.10 0.15 0.21 0.18 0.18 0.21 0.27 0.40 0.47 0.38 0.48 0.64 0.98 1.12 1.24 1.40 1.34 1.23 1.25 1.49 1.67 1.96 2.43 2.98 3.80 4.90 5.88 6.19 5.72 5.28 5.03 4.67 4.33 3.76 3.48 3.61 3.55 3.32 2.96 2.59 2.55 2.47 2.56
0.12 0.13 0.11 0.11 0.14 0.16 0.20 0.26 0.37 0.43 0.34 0.39 0.69 1.10 1.40 1.38 1.31 1.25 1.33 1.33 1.40 1.75 2.18 2.89 3.90 4.44 4.74 4.91 4.67 4.38 4.21 4.07 3.58 3.35 3.29 3.13 3.19 2.94 2.80 2.68 2.77 2.37 2.23 2.32
0.12 0.12 0.10 0.09 0.12 0.22 0.22 0.26 0.34 0.41 0.32 0.40 0.71 1.33 1.61 1.52 1.26 1.16 1.29 1.31 1.44 1.80 2.36 3.17 3.76 3.88 3.63 3.30 3.17 3.16 3.31 3.12 3.03 3.13 3.11 3.06 3.16 2.86 2.68 2.66 2.77 2.36 2.04 2.04
0.13 0.10 0.09 0.10 0.13 0.20 0.25 0.20 0.19 0.23 0.35 0.61 0.84 1.60 1.76 1.55 1.46 1.28 1.33 1.29 1.31 1.54 1.91 2.34 2.62 2.50 2.59 2.71 2.73 2.87 3.00 2.82 2.87 2.92 2.71 2.63 2.58 2.47 2.47 2.53 2.62 2.64 2.19 2.01
0.13 0.12 0.11 0.11 0.11 0.12 0.16 0.14 0.18 0.26 0.42 0.66 0.88 1.30 1.54 1.36 1.56 1.31 1.14 1.09 1.02 1.21 1.38 1.53 1.62 1.73 1.92 2.04 2.21 2.48 2.79 2.82 2.70 2.58 2.58 2.63 2.47 2.48 2.48 2.50 2.60 2.70 2.49 2.19
0.11 0.12 0.11 0.10 0.10 0.10 0.13 0.17 0.28 0.40 0.62 1.20 1.17 1.19 1.46 1.47 1.48 1.28 1.10 0.92 0.97 1.09 1.24 1.35 1.36 1.45 1.63 1.77 1.97 2.22 2.61 2.77 2.74 2.58 2.50 2.53 2.59 2.61 2.55 2.59 2.58 2.40 2.37 2.33
0.15 0.12 0.10 0.09 0.11 0.13 0.15 0.23 0.52 0.88 1.27 1.44 0.98 1.07 1.37 1.25 1.10 0.98 0.78 0.73 0.82 1.00 1.16 1.34 1.36 1.35 1.45 1.56 1.68 1.79 2.08 2.40 2.55 2.51 2.50 2.49 2.66 2.59 2.38 2.29 2.27 2.24 2.02 1.97
0.21 0.18 0.11 0.09 0.11 0.14 0.13 0.17 0.35 0.54 0.62 0.75 0.95 1.39 1.48 1.21 0.83 0.58 0.57 0.71 0.89 1.02 1.10 1.23 1.29 1.26 1.31 1.37 1.52 1.67 1.99 2.19 2.37 2.42 2.41 2.43 2.49 2.39 2.22 2.26 2.08 2.07 1.98 1.89
0.12 0.12 0.09 0.08 0.11 0.13 0.14 0.15 0.16 0.26 0.30 0.56 1.01 1.30 1.25 1.07 0.84 0.67 0.64 0.74 0.96 0.97 0.93 1.04 1.11 1.23 1.31 1.29 1.44 1.58 1.87 2.25 2.48 2.58 2.64 2.58 2.55 2.52 2.46 2.39 2.16 1.97 2.09 1.98
0.07 0.09 0.09 0.09 0.11 0.11 0.13 0.16 0.20 0.24 0.34 0.51 0.83 1.28 1.47 1.29 1.06 0.90 0.82 0.83 0.93 0.95 0.92 1.11 1.32 1.40 1.28 1.15 1.26 1.41 1.71 2.21 2.52 2.69 2.66 2.50 2.69 2.58 2.55 2.46 2.25 2.08 2.08 2.13
0.04 0.07 0.10 0.10 0.12 0.14 0.13 0.15 0.20 0.23 0.25 0.36 0.68 0.95 0.91 0.90 0.86 0.84 0.89 0.86 0.75 0.86 0.97 1.20 1.50 1.51 1.34 1.15 1.12 1.28 1.67 2.02 2.28 2.48 2.56 2.41 2.35 2.30 2.33 2.35 2.28 2.22 2.22 2.20
0.04 0.06 0.08 0.10 0.12 0.12 0.14 0.17 0.22 0.26 0.25 0.25 0.40 0.68 0.54 0.62 0.69 0.80 0.94 1.00 0.94 0.96 1.02 1.08 1.27 1.46 1.35 1.26 1.21 1.42 1.74 1.94 2.08 2.20 2.25 2.19 2.17 2.17 2.12 2.07 2.14 2.22 2.13 2.04
0.05 0.05 0.09 0.18 0.24 0.18 0.14 0.14 0.17 0.22 0.25 0.24 0.43 0.72 0.58 0.53 0.71 0.84 0.92 1.11 1.21 0.96 0.86 0.91 1.05 1.20 1.31 1.27 1.29 1.53 1.80 1.88 1.97 1.98 2.06 2.00 1.98 1.95 1.91 1.90 1.98 2.09 2.11 2.11
0.05 0.05 0.06 0.17 0.25 0.24 0.19 0.16 0.17 0.18 0.18 0.19 0.28 0.59 0.57 0.57 0.76 1.07 1.14 1.13 0.96 0.90 0.88 0.90 1.00 1.20 1.28 1.33 1.35 1.43 1.63 1.81 1.79 1.75 1.87 2.02 2.10 2.15 2.12 2.03 2.09 2.21 2.35 2.35
0.05 0.04 0.04 0.05 0.09 0.16 0.19 0.19 0.17 0.13 0.12 0.18 0.22 0.43 0.48 0.62 0.82 1.02 1.04 0.89 0.79 0.86 0.89 0.89 0.97 1.15 1.30 1.48 1.55 1.55 1.58 1.66 1.81 1.96 2.09 2.37 2.55 2.55 2.41 2.34 2.43 2.46 2.56 2.50
0.06 0.05 0.05 0.05 0.09 0.14 0.18 0.19 0.14 0.11 0.11 0.14 0.21 0.36 0.47 0.65 0.76 0.85 0.80 0.76 0.84 0.89 0.89 0.85 0.96 1.15 1.22 1.28 1.39 1.45 1.52 1.61 1.71 1.83 2.00 2.28 2.54 2.69 2.63 2.64 2.79 2.81 2.78 2.87
0.08 0.08 0.08 0.08 0.12 0.15 0.24 0.20 0.16 0.16 0.15 0.18 0.29 0.36 0.46 0.61 0.73 0.88 0.89 0.89 0.94 0.94 0.92 0.92 0.94 1.03 1.25 1.21 1.24 1.39 1.51 1.68 1.87 2.14 2.36 2.51 2.74 2.91 2.85 2.75 2.75 2.78 2.84 2.85
0.19 0.19 0.16 0.14 0.18 0.28 0.29 0.25 0.24 0.25 0.30 0.31 0.36 0.47 0.57 0.65 0.77 0.88 0.95 0.93 1.03 1.13 1.22 1.26 1.34 1.31 1.40 1.37 1.40 1.51 1.66 1.86 1.98 2.11 2.35 2.53 2.74 2.85 2.92 2.95 2.89 2.98 3.11 3.15
0.31 0.33 0.29 0.25 0.28 0.35 0.37 0.37 0.39 0.43 0.55 0.59 0.67 0.77 0.76 0.77 0.81 0.96 1.08 1.16 1.27 1.25 1.31 1.42 1.52 1.53 1.54 1.62 1.78 1.98 2.06 2.22 2.38 2.49 2.68 2.77 2.81 2.88 2.92 2.97 3.12 3.25 3.36 3.35
0.36 0.41 0.42 0.36 0.46 0.56 0.56 0.54 0.50 0.59 0.95 0.85 0.93 1.04 1.03 1.09 1.35 1.41 1.39 1.39 1.44 1.42 1.47 1.56 1.60 1.65 1.87 1.92 1.99 2.18 2.43 2.59 2.74 2.89 2.99 3.06 3.12 3.13 3.09 3.10 3.22 3.31 3.37 3.39
0.46 0.52 0.52 0.50 0.54 0.60 0.60 0.58 0.59 1.04 1.42 1.33 1.34 1.38 1.33 1.47 1.57 1.44 1.36 1.48 1.55 1.63 1.70 1.74 1.80 1.90 2.06 2.16 2.23 2.36 2.62 2.88 3.07 3.09 3.12 3.19 3.30 3.47 3.60 3.64 3.44 3.29 3.30 3.39
0.75 0.79 0.78 0.78 0.96 1.02 0.72 0.78 1.15 1.44 1.37 1.60 1.49 1.36 1.40 1.43 1.39 1.33 1.33 1.50 1.70 1.85 1.94 1.99 2.04 2.09 2.12 2.24 2.41 2.52 2.70 2.81 2.99 3.03 3.15 3.24 3.30 3.24 3.25 3.57 3.65 3.62 3.49 3.35
1.02 1.07 1.12 1.11 1.25 1.12 0.94 1.01 1.28 1.33 1.33 1.47 1.47 1.29 1.27 1.30 1.25 1.27 1.35 1.46 1.64 1.80 1.92 1.95 2.03 2.15 2.11 2.11 2.31 2.60 2.68 2.73 2.75 2.86 2.99 3.21 3.33 3.39 3.37 3.38 3.49 3.51 3.42 3.19
1.25 1.06 1.23 1.45 1.48 1.35 1.17 1.05 1.12 1.19 1.26 1.31 1.44 1.45 1.35 1.33 1.28 1.35 1.40 1.48 1.68 1.76 1.78 1.85 1.85 1.91 2.01 2.12 2.30 2.37 2.41 2.58 2.84 2.96 2.99 3.06 3.16 3.20 3.30 3.39 3.36 3.30 3.26 3.18
1.35 1.32 1.55 1.95 2.01 1.85 1.68 1.44 1.32 1.30 1.32 1.41 1.52 1.57 1.63 1.59 1.55 1.60 1.55 1.62 1.74 1.75 1.69 1.78 1.88 1.93 2.04 2.09 2.27 2.39 2.43 2.49 2.65 2.75 2.73 2.82 2.98 3.07 3.16 3.28 3.34 3.18 3.06 3.08
1.37 1.61 2.01 2.36 2.19 2.19 2.03 1.67 1.51 1.52 1.61 1.60 1.62 1.66 1.63 1.62 1.60 1.64 1.70 1.64 1.60 1.61 1.71 1.83 1.91 1.99 2.04 2.08 2.18 2.23 2.31 2.44 2.59 2.67 2.72 2.72 2.77 2.90 3.00 2.95 2.99 3.03 2.77 2.71